SL-14 DEB, 45292

Orbit data source: Space-Track

SL-14 DEB, 45292 is space debris in LEO originally from a launch on Thu, 15 Aug 1991 UTC launched from the Plesetsk Missile And Space Complex (PKMTR). Debris objects in space refer to the collection of defunct objects orbiting the Earth. Examples of debris include non-operational satellites, rocket bodies, and fragments generated from explosions, collisions, or faulty payload assembly.

Loading next visibility...
Identifier
45292, 1991-056AE
Orbit
LEO
Country
Flag of CISCIS
Related business
Manufacturer
Unknown
Mission
Spacecraft
Bus & Motor
Unknown
Mass
Unknown
Launch date (UTC)
1991-08-15 (34 years ago)
Launch vehicle
Unknown
Launch site
Plesetsk Missile And Space Complex (PKMTR)
Object type
Payload
Rocket body
Debris
Shape & HBR
Unknown shape, 0.1 m
Radar Cross Section
Small (<0.1 m²)

Expand to show TLE details & history
Last TLE update: 13 hours ago

TLE from 13 hours ago
0 SL-14 DEB
1 45292U 91056AE  25291.99657784  .00006407  00000-0  11265-1 0  9990
2 45292  82.6230 289.5103 0105393  89.4730 271.8481 13.40624388275201
Epoch: 2025-10-18T23:55Z
TLE epoch observation values (Epoch: 2025-10-18T23:55:04.325Z)
Latitude
-0.00005°
Longitude
-96.97731°
Altitude
1,108.084 km
Speed
7.299 km/s
True Right ascension
19h 18m 02s
True Declination
0° 00' 00"
Sunlit
Object was in daylight at epoch
Visualization orbit readout
Latitude
Unknown
Longitude
Unknown
Altitude
Unknown
Speed
Unknown
Apparent Right ascension
Unknown
Apparent Declination
Unknown
Sunlit
N/A
Visualization observer readout
Local Sidereal Time
08:06:34
Azimuth
Unknown
Elevation
Unknown
Doppler factor
Unknown
Orbital elements
Apogee altitude
1,183.021 km
Perigee altitude
1,025.304 km
Semi-major axis
7,482.3 km
Eccentricity
0.01054
Inclination
82.623°
RAAN
289.5103°
Arg. of periapsis
89.473°
True anomaly
270.64059°
Mean anomaly
271.8481°
Eccentric anomaly
271.24439°
Mean motion
3.35344 °/min
Orbital period
107.35 mins
BSTAR
0.011265
Loading maneuver chart data...
Computing Atmospheric mass density...
Loading historical data...
Loading historical data...
Loading historical data...
Loading historical data...
Loading historical data...
Loading historical data...
Loading historical data...

Documentation

Showing up to 5 results
|